Location: Unspecified
(0.0000°N, 0.0000°E)
Time: 12:10:05
(UTC+02:00)

Meteor PRIRODA - Visible Passes

Search period start: 16 April 2014 00:00
Search period end: 26 April 2014 00:00
Orbit: 512 x 538 km, 97.3° (Epoch: 15 April)

Date Brightness Start Highest point End Pass type
(mag) Time Alt. Az. Time Alt. Az. Time Alt. Az.
16 Apr 3.6 07:00:30 10° N 07:04:15 87° WNW 07:08:02 10° SSW visible
17 Apr 4.3 06:48:36 10° NNE 06:52:17 58° E 06:56:00 10° S visible
18 Apr 5.3 06:36:51 10° NE 06:40:18 36° ESE 06:43:48 10° SSE visible
19 Apr 6.1 06:25:17 10° NE 06:28:19 23° ESE 06:31:23 10° SSE visible
20 Apr 6.7 06:14:03 10° ENE 06:16:20 16° ESE 06:18:38 10° SE visible
22 Apr 4.3 07:22:51 10° NNW 07:26:18 35° W 07:29:47 10° SW visible
23 Apr 3.8 07:10:35 10° N 07:14:16 56° W 07:18:01 10° SSW visible
24 Apr 3.7 06:58:28 10° N 07:02:15 89° ESE 07:06:04 10° S visible
25 Apr 4.4 06:46:30 10° NNE 06:50:12 55° E 06:53:57 10° S visible
